Location: Castillon
(43.0896°N, 0.2156°E)
Time: 02:37:30
(UTC+00:00)

Cosmos 1315 Rocket - Pass Details

Date: 16 June 2021
Orbit: 528 x 568 km, 81.2° (Epoch: 25 July)

Event Time Altitude Azimuth Distance (km) Brightness Sun altitude
Rises 20:19:53 0° 355° (N) 2,779 7.2 -6.5°
Reaches altitude 10° 20:22:09 10° 1° (N) 1,877 6.1 -6.8°
Maximum altitude 20:26:10 47° 76° (ENE) 758 3.3 -7.4°
Drops below altitude 10° 20:30:07 10° 151° (SSE) 1,853 4.9 -7.9°
Enters shadow 20:30:23 - 152° (SSE) 1,955 5.0 -7.9°
